Location: Unspecified
(33.6682°S, 0.0000°E)
Time: 21:08:42
(UTC+00:00)

Tiangong 2 - Visible Passes

Search period start: 19 May 2019 00:00
Search period end: 29 May 2019 00:00
Orbit: 378 x 387 km, 42.8° (Epoch: 19 May)

Date Brightness Start Highest point End Pass type
(mag) Time Alt. Az. Time Alt. Az. Time Alt. Az.
22 May 4.1 05:50:10 10° N 05:52:15 16° NE 05:54:22 10° E visible
24 May 2.9 05:26:04 12° NNW 05:28:43 31° NE 05:31:38 10° E visible
25 May 4.3 04:29:54 14° ENE 04:29:54 14° ENE 04:30:53 10° E visible
25 May 1.1 06:02:09 10° WNW 06:05:16 63° SSW 06:08:29 10° SE visible
26 May 1.7 05:05:40 55° E 05:05:40 55° E 05:08:26 10° ESE visible
27 May 1.8 05:41:12 31° SW 05:41:55 36° SSW 05:44:58 10° SE visible
28 May 4.0 04:44:19 15° SE 04:44:19 15° SE 04:45:00 10° SE visible
28 May 2.9 06:16:31 10° WSW 06:18:53 19° S 06:21:20 10° SE visible
